Showing default

OOV-CUBE, 60240

Orbit data source: Space-Track

OOV-CUBE, 60240 is a payload satellite owned by TUB (DE) in LEO that was launched on Tue, 09 Jul 2024 UTC via an ARIANE 62 launch vehicle from the French Guiana (FRGUI). Payload-class satellites include a variety of spacecraft equipped with specific instruments for various scientific and technological missions. These include communications satellites like Starlink; space stations such as the ISS; scientific satellites like the Hubble; Earth observation satellites from companies like Planet Labs, Umbra, and HawkEye 360; GPS; miniature CubeSats for education and research; and military/defense satellites.

Loading next visibility...
Identifier
60240, 2024-128F
Orbit
LEO
Country
Flag of DEDE / GER
Related business
Manufacturer
TUB
Mission
Operational Amateur Technology
Bus & Motor
TUBSAT, Unknown motor
Mass
17 kg wet, 17 kg dry
Launch date (UTC)
2024-07-09 (2 years ago)
Launch vehicle
ARIANE 62
Launch site
French Guiana (FRGUI)
Object type
Payload
Rocket body
Debris
Shape & HBR
Box, 0.2 m
Radar Cross Section
0.094 m², Medium (>0.1 m² and < 1m²)

Expand to show TLE details & history
Last TLE update: 17 hours ago

TLE from 17 hours ago
0 OOV-CUBE
1 60240U 24128F   26265.52362158  .00001200  00000-0  10324-3 0  9998
2 60240  61.9930 246.0719 0030806 156.5096 203.7411 15.03116087120744
Epoch: 2026-09-22T12:34Z
TLE epoch observation values (Epoch: 2026-09-22T12:34:00.904Z)
Latitude
0.00003°
Longitude
56.18028°
Altitude
578.635 km
Speed
7.561 km/s
True Right ascension
16h 24m 17s
True Declination
0° 00' 00"
Sunlit
Object was in daylight at epoch
Visualization orbit readout
Latitude
Unknown
Longitude
Unknown
Altitude
Unknown
Speed
Unknown
Apparent Right ascension
Unknown
Apparent Declination
Unknown
Sunlit
N/A
Visualization observer readout
Local Sidereal Time
22:41:39
Azimuth
Unknown
Elevation
Unknown
Doppler factor
Unknown
Orbital elements
Apogee altitude
577.586 km
Perigee altitude
534.862 km
Semi-major axis
6,934.361 km
Eccentricity
0.00308
Inclination
61.993°
RAAN
246.0719°
Arg. of periapsis
156.5096°
True anomaly
203.59948°
Mean anomaly
203.7411°
Eccentric anomaly
203.67024°
Mean motion
3.75866 °/min
Orbital period
95.78 mins
BSTAR
0.00010324
Loading maneuver chart data...
Computing Atmospheric mass density...
Loading historical data...
Loading historical data...
Loading historical data...
Loading historical data...
Loading historical data...
Loading historical data...
Loading historical data...

Documentation

Showing up to 5 results
|